This is the latest recevied weather packets stored in our database for station/object 9W2SHB-13. If no packets are shown the sender has not sent any weather packets the latest 10 day(s).
| Time | Temp. | Humidity | Pressure | Rain* | Wind** | Luminosity | Snow |
|---|---|---|---|---|---|---|---|
| 1777884306 | 31.11° C | 64% | 1027.7 hPa | - | - | - | - |
| 1777883407 | 30.56° C | 65% | 1028.1 hPa | - | - | - | - |
| 1777882507 | 30.56° C | 65% | 1028 hPa | - | - | - | - |
| 1777881607 | 30.56° C | 65% | 1028.1 hPa | - | - | - | - |
| 1777880707 | 30.56° C | 66% | 1028.1 hPa | - | - | - | - |
| 1777879807 | 31.11° C | 66% | 1028.4 hPa | - | - | - | - |
| 1777878907 | 31.11° C | 66% | 1028.6 hPa | - | - | - | - |
| 1777878007 | 31.11° C | 66% | 1028.2 hPa | - | - | - | - |
| 1777877107 | 31.11° C | 66% | 1028.8 hPa | - | - | - | - |
| 1777876207 | 31.67° C | 66% | 1029.1 hPa | - | - | - | - |
| 1777875306 | 31.67° C | 65% | 1029.1 hPa | - | - | - | - |
| 1777874407 | 31.67° C | 64% | 1029.2 hPa | - | - | - | - |
| 1777873507 | 31.67° C | 62% | 1029.2 hPa | - | - | - | - |
| 1777872607 | 32.22° C | 62% | 1029.3 hPa | - | - | - | - |
| 1777871707 | 32.22° C | 62% | 1029.4 hPa | - | - | - | - |
| 1777870807 | 32.22° C | 62% | 1029.6 hPa | - | - | - | - |
| 1777869907 | 32.22° C | 62% | 1029.7 hPa | - | - | - | - |
| 1777869007 | 31.67° C | 62% | 1030.1 hPa | - | - | - | - |
| 1777868108 | 31.67° C | 62% | 1030.3 hPa | - | - | - | - |
| 1777867207 | 31.67° C | 62% | 1030.5 hPa | - | - | - | - |
| 1777866307 | 31.11° C | 64% | 1030.7 hPa | - | - | - | - |
| 1777865407 | 31.11° C | 64% | 1030.7 hPa | - | - | - | - |
| 1777864507 | 31.11° C | 65% | 1030.7 hPa | - | - | - | - |
| 1777863607 | 31.11° C | 65% | 1030.8 hPa | - | - | - | - |
| 1777862707 | 30.56° C | 66% | 1030.7 hPa | - | - | - | - |
* Rain since midnight (hover to see other rain measurements)
** Current wind speed in m/s (hover to see current wind gust speed)